Starlink 11136

operational
NORAD ID: 60407 Int'l Des: 2024-141 Owner: SPXS Country: US Constellation: starlink
LEOCIRCULAR

Über Starlink 11136

Beschreibung wird geladen...

Live-Position

3D-Globus wird geladen...

Nächste Überflüge

Höhenverlauf

Altitude vs Time

uPlot chart will show altitude changes over time

Zweizeiliger Elementsatz

1 60407U 24141K 25257.34151762 .00004487 00000-0 41909-4 0 9999
2 60407 53.1583 235.7237 0000814 60.1072 300.0026 15.69686357 63996
Epoch: 14. Sept. 2025 • Age: 56 hours

Aktueller Status

Höhe 375.3 km
Geschwindigkeit 7.68 km/s
Subsatellitenpunkt -44.53°S, 147.96°W
Startdatum 10. Aug. 2024
Alter 1.1 years
Typ internet

Technische Details

Klassifizierung Payload
Masse 960.00 kg
Trockenmasse 910.00 kg
Gesamtmasse 960.00 kg
Länge 0.30 m
Durchmesser 4.10 m
Spannweite 29.00 m
Form Box + pan
Hersteller SPXS
Bus-Typ Starlink V2MD
Phasenstatus In Orbit
Besitzer/Staat SPXS/US

Große Konstellationen

Loading constellations...